Regional Weather Roundup
Issued by NWS Newport/Morehead, NC

Current Version | Previous Version | Graphics & Text | Print | Product List | Glossary On
Versions: 1 2 3 4 5 6 7 8 9 10 11 12 13 14 15 16 17 18 19 20 21 22 23 24 25 26 27 28 29 30 31 32 33 34 35 36 37 38 39 40 41 42 43 44 45 46 47 48 49 50
000 ASUS42 KMHX 182125 RWRMHX WEATHER ROUNDUP FOR EASTERN NORTH CAROLINA NATIONAL WEATHER SERVICE NEWPORT/MOREHEAD CITY NC 400 PM EST SUN FEB 18 2018 NOTE: "FAIR" INDICATES FEW OR NO CLOUDS BELOW 12,000 FEET WITH NO SIGNIFICANT WEATHER AND/OR OBSTRUCTIONS TO VISIBILITY NCZ015>017-031-032-045>047-102-103-182200- NORTH COAST CITY SKY/WX TMP DP RH WIND PRES REMARKS EDENTON FAIR 53 40 62 E12 30.41R ELIZABETH CITY FAIR 51 37 58 NE15 30.41R KITTY HAWK FAIR 46 35 65 NE6 30.41R MANTEO FAIR 47 35 63 E13 30.42S $$ NCZ045>047-081-094-103-104-182200- CENTRAL COAST CITY SKY/WX TMP DP RH WIND PRES REMARKS FRISCO FAIR 50 37 61 NE13G24 30.40R $$ NCZ095-097-098-100-101-182200- SOUTHERN COAST CITY SKY/WX TMP DP RH WIND PRES REMARKS BEAUFORT FAIR 54 36 50 NE14 30.39R CEDAR ISLAND NOT AVBL JACKSONVILLE FAIR 59 45 59 SE15 30.35R PINEY ISLAND NOT AVBL WILMINGTON CLOUDY 57 45 64 E17 30.36R $$ NCZ011>013-027>030-043-044-078>080-089-090>093-098-182200- COASTAL PLAIN CITY SKY/WX TMP DP RH WIND PRES REMARKS AHOSKIE FAIR 54 37 51 E6 30.39R CLINTON CLOUDY 65 39 38 E3 30.33S ELIZABETHTOWN NOT AVBL GOLDSBORO FAIR 63 40 42 E12 30.32R GREENVILLE FAIR 59 37 44 E8 30.38R HAVELOCK SUNNY 55 41 59 NE20 30.39R KENANSVILLE CLOUDY 64 37 36 SE6 30.33S KINSTON FAIR 61 39 44 E9 30.36R NEW BERN FAIR 56 40 55 E14 30.39R RICHLANDS NOT AVBL ROCKY MOUNT FAIR 59 40 49 NE7 30.36R WASHINGTON FAIR 56 38 52 E9 30.39R WHITEVILLE CLOUDY 64 45 49 E9 30.31S $$ AMZ130-135-150-152-154-156-158-170-250-252-270-ANZ085-086-088-633-658-670-182200- MARINE OBSERVATIONS STATION/POSITION TIME TEMP WIND PRES WAVE SWELL AIR SEA DIR/SP/G HT/PER HT/PER (UTC) (F) (DEG/KT/KT) (MB) (FT/S) (FT/S) CHESAPEAKE LIGHT NOT AVBL 64 E VA BEACH 2050 45 50 20/ 14/ 17 1030.1 4/ 6 DUCK 2100 45 45 40/ 13/ 15 1029.6 2 E DUCK 2100 45 N/A 5/ 6 OREGON INLET 2100 46 49 30/ 12/ 16 1029.9 13E OREGON INLT 2048 46 N/A 7/ 7 5/ 7 HATTERAS CG 2100 48 56 50/ 13/ 19 1029.3 DIAMOND BUOY 2110 53 73 30/ 19/ 25 1029.3 CAPE LOOKOUT 2100 50/ 23/ 26 1029.2 BEAUFORT LAB 2100 52 54 70/ 11/ 16 1029.1 30 SE NEW RVR IN 2008 55 67 90/ 19/ 25 1027.6 30 SE NEW RVR IN 2100 66 N/A 7/ 6 27 SE WRIGHTSVLE 2008 57 65 90/ 21/ 31 1027.8 5 SE WRIGHTSVLE 2108 54 54 100/ 17/ 23 1027.4 225 S CAPE HAT 2050 69 73 50/ 17/ 19 1024.6 5/ 7 2/ 8 41 SE CHARLESTON 2110 65 68 60/ 19/ 23 1025.1 $$

USA.gov is the U.S. government's official web portal to all federal, state and local government web resources and services.